Wind_Speed
25 21 23 27 27 26 24 21 18 14 13 10 12 15 14 10 8 9 10 12 9 8 7 7 6 6 5 6 7 6 5 4 1 3 3 8 13 8 7 9 11 12 14
26 22 21 23 24 24 22 20 17 15 12 11 13 13 10 8 8 7 9 12 8 7 8 8 6 6 5 7 6 6 8 8 2 1 5 9 8 5 6 7 9 12 13
30 26 23 22 22 24 21 19 18 16 14 12 12 11 9 8 9 8 6 9 8 6 6 6 6 6 7 7 8 9 6 6 8 8 9 5 2 1 4 7 9 8 9
30 29 27 24 22 22 21 20 18 15 13 11 11 11 9 9 9 8 9 7 7 4 3 4 5 6 8 8 8 10 9 8 10 12 10 6 6 4 4 6 6 6 5
29 29 28 24 22 20 19 20 18 15 13 11 12 11 8 8 7 8 11 6 5 3 2 2 4 7 8 10 11 14 13 15 18 20 22 13 7 2 4 9 6 4 5
30 27 26 25 25 23 20 19 19 16 13 13 13 11 9 11 10 10 8 8 3 2 2 2 5 8 9 11 14 16 19 23 24 24 25 23 17 10 8 9 5 4 7
30 28 26 24 24 23 21 19 20 17 14 14 14 12 11 10 10 8 6 5 4 3 2 2 5 7 8 9 14 17 21 21 24 25 27 28 27 22 16 8 5 8 11
34 30 26 22 20 21 20 20 19 18 16 15 15 14 12 11 11 9 7 6 5 4 3 2 3 6 8 9 11 14 17 19 19 21 25 27 28 23 21 14 7 8 9
34 33 30 25 21 20 20 18 19 19 18 17 17 16 14 13 12 10 9 7 6 6 5 3 2 4 7 10 10 11 13 14 15 16 18 23 26 26 21 18 14 4 12
34 32 28 26 25 22 20 18 16 19 19 18 19 17 15 14 13 11 9 8 9 9 7 5 3 2 6 10 9 8 10 10 13 14 15 17 22 28 28 28 25 23 21
29 28 28 28 26 24 21 19 18 18 19 19 20 18 17 16 14 12 9 8 7 8 6 6 5 4 4 8 7 5 8 10 12 12 14 14 17 23 27 28 26 26 26
24 23 25 26 27 26 24 22 21 22 21 22 22 22 19 18 18 15 9 8 6 7 6 8 7 6 6 8 7 4 6 9 10 9 12 13 12 19 23 25 26 23 24
20 22 23 24 25 25 26 25 24 25 25 27 27 26 23 22 20 18 10 11 7 7 7 8 8 7 7 11 9 4 3 7 8 9 9 10 10 14 19 21 21 21 23
17 19 20 23 24 25 25 25 25 28 29 29 30 29 25 23 25 23 18 16 12 11 10 11 10 9 10 11 8 4 3 5 6 9 8 11 11 14 16 15 16 18 23
15 19 22 21 22 26 26 28 28 27 28 30 32 31 27 28 28 26 22 19 15 11 12 12 11 11 12 12 10 7 3 3 4 7 7 11 12 13 14 11 13 14 20
13 16 20 22 22 24 27 27 27 27 25 27 31 28 21 22 18 25 26 20 17 14 13 11 10 11 12 12 10 9 8 4 2 3 6 7 11 13 14 11 12 15 17
12 18 20 21 22 24 25 26 29 28 27 26 27 21 18 15 15 17 30 24 20 18 15 12 10 10 12 13 11 9 7 5 4 4 7 6 6 10 11 12 11 12 16
11 16 19 22 24 24 24 24 27 30 30 27 24 20 19 18 15 17 26 28 25 22 17 13 12 11 13 13 13 10 9 7 7 7 9 6 3 6 9 10 11 13 14
6 3 16 24 23 21 20 22 25 28 25 26 24 25 21 20 16 16 20 24 20 15 11 15 13 12 12 12 13 11 9 6 6 9 8 7 5 4 6 7 11 14 14
15 7 1 6 13 6 9 13 14 6 14 18 23 29 28 25 22 20 19 19 21 14 12 12 12 10 9 10 12 10 10 10 7 9 9 8 7 5 2 8 9 13 14
12 20 15 11 8 8 3 5 16 18 5 25 27 28 28 26 19 18 18 18 19 21 17 14 13 10 9 9 9 9 9 10 9 8 10 8 8 9 6 9 11 10 14
8 10 3 8 11 13 14 16 5 5 16 24 16 18 25 24 24 24 17 14 16 16 16 15 17 14 12 13 11 6 10 11 12 11 11 11 11 13 13 10 11 12 12
10 9 9 8 8 11 9 5 15 9 9 5 11 14 14 16 17 19 14 13 14 14 16 18 21 22 17 14 16 10 4 9 10 12 12 14 17 16 14 12 10 13 15
15 18 19 18 18 17 18 24 28 26 11 7 8 14 16 16 15 14 13 12 11 12 14 16 16 22 21 18 16 20 12 6 11 12 12 13 18 20 18 17 14 13 14
17 20 20 18 21 23 24 23 24 26 24 22 18 12 12 13 12 13 13 12 11 12 11 13 24 25 23 22 19 18 17 8 9 12 14 14 17 21 21 21 18 17 16
21 20 20 20 21 21 20 20 19 17 14 12 10 10 10 11 11 11 11 10 10 9 8 4 8 19 25 26 24 20 20 16 12 14 16 17 19 24 26 26 23 23 20
Wind_Direction
226 227 224 222 224 230 235 240 246 250 254 274 293 305 312 339 339 349 358 350 338 360 15 14 24 14 357 37 55 54 55 52 1 151 247 319 333 349 1 2 19 29 27
226 226 226 226 225 230 235 234 233 247 263 279 288 293 306 336 333 335 343 343 345 356 11 9 13 13 18 44 43 27 16 26 11 243 302 323 332 344 7 9 12 17 16
226 227 228 228 227 228 231 234 236 244 257 269 276 288 299 316 321 317 328 334 346 349 9 13 26 38 50 46 29 26 25 18 350 341 343 352 7 71 29 11 8 7 13
227 229 230 230 232 234 233 235 240 242 247 256 268 282 292 291 295 303 305 329 345 335 357 28 40 53 54 47 47 46 41 36 32 20 28 55 90 102 32 7 354 4 348
223 226 229 230 231 234 235 233 235 236 243 256 263 268 266 262 274 292 295 320 330 328 327 51 56 69 69 64 59 71 67 56 53 51 54 64 72 82 355 354 339 337 319
219 222 225 228 231 233 234 232 230 233 238 250 255 255 241 236 262 286 298 309 278 298 306 102 86 88 86 73 72 77 68 59 58 53 51 48 43 27 357 345 352 354 341
220 222 227 230 231 230 231 233 229 229 234 243 241 234 232 235 252 256 281 295 262 254 252 147 109 108 87 75 79 77 70 60 54 50 47 41 38 30 22 8 5 351 6
225 225 223 223 224 226 227 231 226 224 226 232 233 229 230 235 249 255 260 249 236 214 196 164 106 109 92 79 91 86 74 62 56 46 45 43 39 35 34 33 16 0 22
225 227 226 221 216 218 223 227 222 216 218 225 227 231 230 235 247 252 250 234 217 202 196 186 113 117 91 88 88 82 80 65 56 50 42 40 35 35 40 35 32 76 56
226 228 229 228 225 222 223 225 221 214 215 222 227 233 233 236 245 245 247 229 212 203 201 197 194 149 101 110 96 81 74 68 56 65 47 36 32 30 37 39 46 53 51
229 230 232 234 232 230 228 226 224 217 217 221 230 231 230 236 240 240 248 227 228 211 206 191 196 181 127 130 112 85 64 67 61 75 54 35 29 31 37 35 40 47 51
218 226 226 229 229 228 231 229 227 223 220 221 228 228 227 230 229 231 244 217 223 211 204 187 184 173 155 152 144 129 60 62 55 68 55 42 30 32 42 38 37 44 55
217 226 230 231 230 228 227 229 229 226 224 224 227 227 224 217 224 224 228 210 202 192 192 188 180 178 170 160 156 157 85 60 62 92 65 50 47 45 48 41 39 42 60
216 225 242 240 237 236 235 235 233 227 225 225 228 227 221 217 218 219 212 210 197 184 181 181 180 182 177 168 168 171 128 76 69 81 78 62 54 46 57 45 45 52 64
225 224 239 244 242 241 238 237 237 239 234 229 229 232 223 218 223 222 217 213 208 193 189 189 191 190 191 184 176 165 157 123 72 83 82 75 61 49 43 59 61 70 73
252 238 242 242 240 238 240 241 238 238 236 236 241 242 237 243 250 230 220 215 209 203 203 205 205 203 203 195 186 181 169 154 104 99 108 89 66 52 42 69 70 80 78
259 257 251 247 243 238 238 239 237 233 236 233 236 235 231 242 237 237 215 214 212 212 215 217 217 221 210 204 198 185 177 167 134 120 138 118 88 62 41 45 86 87 89
277 279 268 251 239 235 240 248 247 237 234 221 220 214 214 229 235 217 206 207 207 215 226 229 228 222 216 212 205 191 183 192 164 143 139 156 128 72 55 53 87 106 109
342 354 271 253 243 238 236 242 249 242 241 226 215 208 220 211 215 185 199 213 209 208 220 223 228 222 217 209 200 192 191 200 192 173 155 162 174 105 84 84 95 118 116
59 67 129 199 214 167 137 61 80 18 313 250 237 221 207 200 186 180 186 206 210 196 208 211 217 204 196 200 199 193 193 206 210 205 193 188 214 226 87 124 113 122 127
52 66 81 115 139 145 35 314 328 316 290 293 250 218 217 210 208 204 194 200 208 209 212 214 204 198 195 199 200 205 212 219 221 228 219 207 217 227 193 150 141 141 145
250 235 237 57 50 65 66 60 125 49 308 208 197 211 214 212 210 204 202 208 215 220 220 219 224 214 219 218 215 219 225 230 228 228 225 209 205 196 185 159 161 164 163
110 137 144 140 123 114 92 74 74 137 345 101 136 164 177 187 199 204 208 222 233 234 220 226 228 233 232 230 216 227 263 234 244 243 234 215 200 198 203 195 183 186 181
82 104 113 115 120 129 131 127 118 183 179 179 213 147 151 162 173 176 174 187 208 218 235 239 229 227 242 239 224 220 245 248 238 251 244 234 215 206 214 215 217 206 196
73 80 93 105 111 114 125 134 147 161 173 179 176 168 164 167 169 182 185 181 191 180 207 234 231 222 235 238 240 227 223 228 214 235 238 233 228 218 217 221 229 223 213
72 75 79 82 86 97 105 111 114 122 128 128 138 150 168 174 174 171 173 178 187 176 201 213 221 218 223 234 247 241 226 231 223 215 232 233 228 220 219 221 227 227 226
Height
1527 1532 1535 1540 1543 1547 1550 1553 1555 1555 1556 1556 1556 1555 1554 1553 1550 1548 1547 1545 1542 1540 1538 1536 1535 1535 1533 1532 1531 1528 1526 1525 1524 1523 1521 1519 1516 1514 1513 1512 1510 1508 1506
1525 1528 1532 1536 1540 1543 1546 1549 1552 1553 1554 1554 1554 1553 1552 1551 1550 1548 1547 1546 1543 1541 1539 1538 1537 1536 1535 1533 1532 1529 1527 1526 1525 1522 1520 1518 1515 1513 1513 1512 1510 1508 1506
1520 1524 1529 1532 1536 1539 1543 1546 1549 1550 1551 1551 1551 1551 1551 1550 1549 1549 1547 1546 1544 1543 1541 1541 1539 1538 1536 1535 1533 1530 1529 1527 1525 1522 1518 1516 1515 1514 1514 1512 1509 1507 1505
1516 1520 1524 1528 1532 1535 1539 1542 1545 1547 1548 1549 1549 1550 1550 1549 1549 1548 1547 1546 1545 1544 1544 1543 1541 1539 1538 1537 1534 1533 1531 1529 1526 1523 1518 1516 1515 1515 1513 1511 1509 1507 1505
1511 1515 1520 1525 1529 1532 1535 1538 1541 1544 1545 1546 1547 1548 1548 1547 1547 1547 1546 1546 1546 1545 1544 1543 1542 1540 1539 1538 1537 1535 1534 1531 1528 1525 1520 1518 1516 1515 1512 1510 1508 1506 1505
1506 1510 1516 1521 1525 1529 1532 1534 1537 1540 1542 1543 1544 1545 1545 1546 1546 1546 1546 1545 1545 1545 1543 1543 1542 1542 1542 1541 1539 1537 1535 1533 1529 1526 1524 1521 1518 1515 1512 1509 1507 1505 1504
1501 1507 1512 1517 1521 1525 1528 1531 1533 1536 1539 1540 1541 1542 1543 1544 1545 1545 1545 1544 1544 1544 1543 1543 1543 1543 1543 1543 1541 1539 1537 1536 1533 1531 1527 1523 1519 1516 1512 1509 1507 1505 1503
1499 1504 1509 1513 1517 1521 1524 1526 1529 1532 1535 1537 1539 1540 1541 1542 1542 1543 1543 1543 1544 1544 1544 1545 1545 1544 1544 1544 1543 1541 1539 1538 1536 1534 1531 1528 1524 1519 1514 1511 1508 1506 1504
1495 1501 1505 1509 1513 1517 1520 1522 1525 1528 1531 1533 1535 1537 1538 1539 1540 1541 1542 1543 1544 1545 1545 1546 1546 1546 1545 1544 1544 1543 1542 1541 1540 1538 1535 1532 1529 1524 1519 1515 1508 1505 1504
1492 1497 1502 1506 1510 1512 1516 1518 1522 1524 1527 1530 1532 1534 1536 1537 1539 1540 1541 1542 1543 1544 1544 1545 1546 1546 1546 1545 1546 1546 1546 1544 1542 1540 1538 1536 1533 1529 1523 1517 1512 1508 1505
1490 1494 1498 1503 1506 1509 1512 1515 1518 1521 1524 1526 1529 1531 1534 1535 1537 1538 1540 1542 1543 1543 1544 1544 1545 1546 1548 1548 1548 1547 1547 1546 1544 1542 1540 1538 1536 1532 1528 1523 1518 1512 1509
1487 1491 1494 1498 1502 1505 1508 1511 1514 1517 1520 1522 1525 1527 1531 1533 1535 1537 1538 1541 1541 1542 1543 1544 1545 1546 1548 1549 1550 1550 1549 1548 1547 1546 1543 1541 1539 1536 1533 1529 1524 1519 1516
1485 1488 1491 1494 1497 1499 1502 1505 1509 1513 1516 1519 1521 1523 1527 1529 1532 1534 1537 1539 1541 1542 1543 1544 1545 1547 1547 1548 1550 1550 1550 1550 1548 1548 1546 1544 1542 1540 1537 1535 1531 1526 1522
1484 1486 1489 1491 1493 1496 1500 1502 1504 1508 1511 1514 1517 1520 1524 1527 1527 1530 1533 1536 1538 1540 1542 1544 1545 1546 1547 1549 1550 1551 1551 1551 1550 1549 1548 1547 1545 1543 1541 1539 1536 1533 1528
1482 1484 1487 1489 1491 1494 1497 1498 1501 1505 1509 1511 1514 1517 1520 1522 1523 1526 1530 1532 1535 1537 1540 1542 1543 1545 1546 1547 1549 1550 1551 1551 1551 1551 1549 1548 1547 1546 1544 1542 1540 1538 1534
1480 1483 1484 1487 1489 1492 1494 1496 1498 1501 1505 1508 1511 1515 1519 1522 1524 1524 1528 1532 1534 1535 1537 1538 1540 1542 1544 1546 1548 1550 1551 1551 1551 1551 1551 1551 1549 1548 1547 1545 1544 1543 1539
1475 1481 1483 1485 1487 1488 1491 1493 1494 1497 1500 1502 1505 1512 1516 1519 1520 1523 1525 1529 1531 1533 1534 1536 1538 1540 1542 1544 1546 1548 1550 1551 1552 1552 1553 1552 1551 1551 1550 1548 1548 1547 1545
1475 1479 1478 1480 1481 1482 1486 1489 1490 1492 1494 1498 1502 1507 1512 1516 1519 1518 1523 1526 1528 1530 1533 1535 1536 1537 1539 1542 1544 1547 1549 1551 1552 1552 1553 1553 1553 1554 1553 1552 1551 1551 1550
1474 1475 1475 1477 1479 1479 1481 1483 1486 1487 1492 1497 1500 1503 1507 1511 1516 1515 1519 1525 1526 1528 1530 1532 1534 1536 1537 1540 1542 1545 1548 1550 1552 1553 1554 1554 1555 1555 1555 1555 1555 1554 1554
1474 1473 1475 1476 1474 1476 1479 1483 1480 1480 1462 1495 1502 1503 1502 1506 1509 1515 1515 1521 1524 1526 1528 1530 1533 1535 1537 1539 1541 1543 1546 1549 1551 1552 1554 1555 1556 1557 1557 1558 1558 1558 1558
1484 1478 1478 1479 1475 1471 1470 1477 1482 1488 1482 1501 1504 1505 1505 1504 1505 1512 1513 1516 1523 1524 1526 1530 1532 1534 1535 1537 1539 1541 1543 1547 1549 1550 1552 1554 1555 1556 1558 1559 1560 1561 1562
1479 1479 1483 1483 1478 1472 1472 1468 1476 1477 1480 1482 1498 1501 1505 1506 1506 1510 1510 1513 1519 1523 1525 1528 1530 1531 1532 1534 1536 1538 1540 1543 1546 1548 1550 1552 1554 1556 1558 1559 1560 1562 1564
1479 1481 1481 1476 1472 1472 1471 1465 1468 1486 1484 1488 1496 1501 1504 1505 1505 1508 1507 1512 1517 1518 1521 1523 1526 1526 1528 1530 1531 1534 1537 1539 1542 1545 1547 1550 1552 1555 1557 1558 1560 1562 1564
1483 1480 1477 1476 1474 1472 1472 1469 1449 1486 1499 1503 1505 1502 1501 1504 1506 1504 1502 1508 1512 1515 1517 1519 1522 1522 1523 1526 1527 1530 1533 1536 1539 1542 1544 1547 1550 1553 1556 1558 1559 1562 1563
1485 1481 1480 1482 1481 1481 1479 1475 1477 1485 1496 1502 1504 1506 1504 1503 1502 1506 1506 1506 1510 1508 1513 1514 1516 1516 1519 1522 1523 1526 1529 1531 1533 1537 1541 1543 1546 1548 1551 1555 1558 1560 1562
1490 1490 1488 1486 1484 1485 1484 1485 1486 1491 1496 1497 1499 1502 1504 1505 1505 1503 1502 1504 1509 1504 1511 1511 1511 1510 1513 1517 1520 1520 1522 1525 1528 1530 1535 1538 1540 1543 1547 1550 1553 1557 1559